Погода в Архангеле

Россия / Владимирская область     55°27′03″N   41°32′53″E
темп.,
°C
ветер,
м/с
пор.,
м/с
влажн.,
%
обл.,
%
осадки,
мм/ч
давл.,
гПа
погр.,
м
11 мая, вт
вт1100:00+6ссв4139461 0.0 1026361
03:00+6св514935 0.0 1026392
06:00+7св5139123 0.0 1026373
09:00+13св69736 0.0 1026509
12:00+18всв57645 0.0 1026794
15:00+20всв576192 0.0 10251011
18:00+18всв4977100 0.3 1026597
21:00+13ююв2593100 2.8 102688
12 мая, ср
ср1200:00+11ююз119596 0.3 102711
03:00+10с11945 0.3 102710
06:00+12ссв119134 0.0 102757
09:00+17всв478096 0.0 1025487
12:00+17всв49819 0.6 1024492
15:00+20вюв6126392 1.4 10221809
18:00+17вюв61279100 0.2 10221212
21:00+14юв4119428 0.3 1023571
13 мая, чт
чт1300:00+12вюв3119837 0.0 1023405
03:00+12в389827 0.0 1023246
06:00+13в3994100 0.0 1022302
09:00+17в5107429 0.0 1020506
12:00+19вюв81462100 0.1 10191312
15:00+16юв61188100 0.9 1018906
18:00+15юв3894100 0.6 1018512
21:00+13юв239998 0.9 101871
14 мая, пт
пт1400:00+12ююз22989 0.0 101825
03:00+11ю119775 0.0 101910
06:00+13ююв1294100 0.0 102083
09:00+17юв2380100 0.0 1020369
12:00+21юв3457100 0.0 1019957
15:00+23юв35495 0.0 10181553
18:00+22вюв376467 0.0 1017447
21:00+16вюв3109098 0.0 1016178
15 мая, сб
сб1500:00+16юв31096100 0.9 1015213
03:00+15юв259693 1.6 1014107
06:00+16юв4109299 0.0 1013240
09:00+20ююв4866100 0.1 1012620
12:00+23ю685421 0.0 10121079
15:00+24ю695897 0.0 10111183
18:00+20ю81577100 1.0 10111136
21:00+14ю31191100 1.1 1012300